N0HEQ Weather Reports


time (UTC)temp
C
wind
direction
speed
KPH
gust
KPH
rain 1hr
cm
rain 24hr
cm
rain mn
cm
humidity
%
barometer
mb
20260505195245 5 76 0.0 3.2 0.00 0.00 0.00 91 1015.5
20260505194742 5 196 1.6 6.4 0.00 0.00 0.00 91 1015.4
20260505194552 -17 0.0 0.0 0.00 0.00 0.00 1013.4
20260505194238 5 38 0.0 3.2 0.00 0.00 0.00 93 1015.2
20260505193734 5 57 0.0 3.2 0.00 0.00 0.00 93 1015.3
20260505193231 5 85 1.6 3.2 0.00 0.00 0.00 94 1015.6
20260505193044 -17 0.0 0.0 0.00 0.00 0.00 1013.4
20260505192730 4 80 3.2 3.2 0.00 0.00 0.00 95 1015.5
20260505192227 5 74 3.2 3.2 0.00 0.00 0.00 96 1015.5
20260505191725 4 294 0.0 3.2 0.00 0.00 0.00 96 1015.6
20260505191555 -17 0.0 0.0 0.00 0.00 0.00 1013.4
20260505191224 3 12 0.0 3.2 0.00 0.00 0.00 96 1015.7
20260505190719 3 70 1.6 4.8 0.00 0.00 0.00 96 1015.7
20260505190219 3 269 0.0 3.2 0.00 0.00 0.00 96 1015.9
20260505190050 -17 0.0 0.0 0.00 0.00 0.00 1013.8
20260505185716 3 22 0.0 3.2 0.00 0.00 0.00 96 1015.9
20260505185213 3 65 3.2 3.2 0.00 0.00 0.00 96 1015.9
20260505184709 3 76 1.6 3.2 0.00 0.00 0.00 96 1016.2
20260505184552 -17 0.0 0.0 0.00 0.00 0.00 1013.9
20260505184206 3 65 0.0 3.2 0.00 0.00 0.00 96 1016.2
20260505183703 3 94 3.2 3.2 0.00 0.00 0.00 96 1016.1
20260505183201 3 66 1.6 3.2 0.00 0.00 0.00 96 1016.2
20260505183050 -17 0.0 0.0 0.00 0.00 0.00 1014.1
20260505182656 3 45 1.6 3.2 0.00 0.00 0.00 96 1016.5
20260505182154 3 57 0.0 3.2 0.00 0.00 0.00 96 1016.5
20260505181650 2 74 1.6 3.2 0.00 0.00 0.00 96 1016.5
20260505181548 -17 0.0 0.0 0.00 0.00 0.00 1014.4
20260505181148 3 78 3.2 4.8 0.00 0.00 0.00 96 1016.2
20260505180643 2 74 1.6 3.2 0.00 0.00 0.00 97 1016.6
20260505180141 3 42 3.2 3.2 0.00 0.00 0.00 97 1016.7
20260505180056 -17 0.0 0.0 0.00 0.00 0.00 1014.6
20260505175637 3 102 1.6 4.8 0.00 0.00 0.00 97 1016.9
20260505175133 3 46 3.2 3.2 0.00 0.00 0.00 97 1016.7
20260505174630 2 61 3.2 4.8 0.00 0.00 0.00 97 1016.8
20260505174550 -17 0.0 0.0 0.00 0.00 0.00 1014.6
20260505174126 3 65 3.2 3.2 0.00 0.00 0.00 97 1016.9
20260505173623 3 50 0.0 3.2 0.00 0.00 0.00 97 1016.7
20260505173120 3 97 3.2 3.2 0.00 0.00 0.00 97 1016.9
20260505173049 -17 0.0 0.0 0.00 0.00 0.00 1014.6
20260505172618 2 48 3.2 4.8 0.00 0.00 0.00 97 1016.9
20260505172114 2 55 3.2 3.2 0.00 0.00 0.00 97 1016.8
20260505171608 3 68 0.0 3.2 0.00 0.00 0.00 97 1016.8
20260505171550 -17 0.0 0.0 0.00 0.00 0.00 1014.7
20260505171106 2 94 3.2 4.8 0.00 0.00 0.00 97 1016.9
20260505170603 2 92 3.2 4.8 0.00 0.00 0.00 97 1016.9
20260505170059 2 75 1.6 3.2 0.00 0.00 0.00 97 1016.9
20260505170052 -17 0.0 0.0 0.00 0.00 0.00 1014.9
20260505165554 2 66 3.2 4.8 0.00 0.00 0.00 97 1016.8
20260505165050 2 99 3.2 4.8 0.00 0.00 0.00 97 1017.0
20260505164551 -17 0.0 0.0 0.00 0.00 0.00 1015.1
20260505164546 2 75 0.0 3.2 0.00 0.00 0.00 97 1017.3
20260505164044 2 56 1.6 3.2 0.00 0.00 0.00 97 1017.4
20260505163543 2 99 3.2 3.2 0.00 0.00 0.00 97 1017.3
20260505163055 -17 0.0 0.0 0.00 0.00 0.00 1015.3
20260505163039 2 53 1.6 3.2 0.00 0.00 0.00 97 1017.6
20260505162538 2 65 3.2 4.8 0.00 0.00 0.00 97 1017.4
20260505162035 2 105 3.2 4.8 0.00 0.00 0.00 97 1017.3
20260505161552 -17 0.0 0.0 0.00 0.00 0.00 1015.2
20260505161532 2 43 3.2 3.2 0.00 0.00 0.00 97 1017.3
20260505161029 2 98 0.0 4.8 0.00 0.00 0.00 97 1017.4
20260505160527 2 68 3.2 4.8 0.00 0.00 0.00 97 1017.3
20260505153101 -17 0.0 0.0 0.00 0.00 0.00 1015.3
20260505153003 2 54 1.6 4.8 0.00 0.00 0.00 97 1017.3
20260505152500 2 85 0.0 3.2 0.00 0.00 0.00 97 1017.6
20260505151955 2 62 3.2 3.2 0.00 0.00 0.00 97 1017.4
20260505151549 -17 0.0 0.0 0.00 0.00 0.00 1015.4
20260505151451 2 252 1.6 4.8 0.00 0.00 0.00 97 1017.5
20260505150949 2 25 0.0 4.8 0.00 0.00 0.00 97 1017.4
20260505150445 2 41 1.6 4.8 0.00 0.00 0.00 97 1017.5
20260505140415 2 109 0.0 4.8 0.00 0.00 0.00 97 1017.9
20260505124829 2 85 3.2 6.4 0.00 0.00 0.00 96 1016.5
20260505124557 -17 0.0 0.0 0.00 0.00 0.00 1014.4
20260505124326 2 289 1.6 6.4 0.00 0.00 0.00 96 1016.5
20260505123822 2 295 4.8 6.4 0.00 0.00 0.00 96 1016.3
20260505123319 2 359 1.6 3.2 0.00 0.00 0.00 96 1016.2
20260505123053 -17 0.0 0.0 0.00 0.00 0.00 1013.9
20260505122815 2 99 4.8 4.8 0.00 0.00 0.00 96 1016.1
20260505122312 2 89 3.2 6.4 0.00 0.00 0.00 96 1016.6
20260505121808 2 38 3.2 8.0 0.00 0.00 0.00 96 1016.2
20260505121554 -17 0.0 0.0 0.00 0.00 0.00 1013.9
20260505121306 2 161 3.2 6.4 0.00 0.00 0.00 96 1016.1
20260505120802 3 59 6.4 8.0 0.00 0.00 0.00 96 1016.0
20260505120258 3 69 9.7 9.7 0.00 0.00 0.00 96 1015.9
20260505120106 -17 0.0 0.0 0.00 0.00 0.00 1013.6
20260505115756 3 12 3.2 6.4 0.00 0.00 0.00 96 1015.7
20260505115254 3 33 3.2 6.4 0.00 0.00 0.00 96 1015.6
20260505114751 3 260 3.2 8.0 0.00 0.00 0.00 96 1015.6
20260505114551 -17 0.0 0.0 0.00 0.00 0.00 1013.4
20260505114247 3 130 0.0 4.8 0.00 0.00 0.00 96 1015.4
20260505113744 3 160 3.2 8.0 0.00 0.00 0.00 95 1015.5
20260505113241 3 15 3.2 8.0 0.00 0.00 0.00 95 1015.9
20260505113101 -17 0.0 0.0 0.00 0.00 0.00 1013.4
20260505112737 3 343 3.2 6.4 0.00 0.00 0.00 95 1015.3
20260505112235 3 271 1.6 6.4 0.00 0.00 0.00 95 1015.4
20260505111735 4 221 3.2 6.4 0.00 0.00 0.00 95 1015.3
20260505111551 -17 0.0 0.0 0.00 0.00 0.00 1013.3
20260505111231 4 49 4.8 8.0 0.00 0.00 0.00 95 1015.5
20260505110727 4 49 3.2 6.4 0.00 0.00 0.00 95 1015.3
20260505110225 4 139 3.2 8.0 0.00 0.00 0.00 95 1015.0
20260505102200 5 19 1.6 9.7 0.00 0.00 0.00 96 1014.2
20260505101659 5 309 1.6 8.0 0.00 0.00 0.00 96 1013.7
20260505101556 -17 0.0 0.0 0.00 0.00 0.00 1011.5
20260505101154 5 42 3.2 9.7 0.00 0.00 0.00 96 1013.9
20260505100650 5 68 3.2 8.0 0.00 0.00 0.00 96 1014.1
20260505100148 5 196 3.2 8.0 0.00 0.00 0.00 96 1014.1
20260505100049 -17 0.0 0.0 0.00 0.00 0.00 1011.6
20260505095643 5 47 3.2 6.4 0.00 0.00 0.00 96 1014.0
20260505095141 6 100 4.8 8.0 0.00 0.00 0.00 96 1014.2
20260505094637 6 253 0.0 4.8 0.00 0.00 0.00 96 1014.0
20260505094552 -17 0.0 0.0 0.00 0.00 0.00 1011.7
20260505094133 6 45 4.8 6.4 0.00 0.00 0.00 96 1014.2
20260505093630 6 88 4.8 4.8 0.00 0.00 0.00 96 1014.1
20260505093127 6 101 3.2 6.4 0.00 0.00 0.00 96 1014.0
20260505093055 -17 0.0 0.0 0.00 0.00 0.00 1011.6
20260505092624 7 239 4.8 9.7 0.00 0.00 0.00 96 1013.6
20260505092123 8 79 1.6 4.8 0.00 0.00 0.00 97 1013.9
20260505091619 8 55 1.6 3.2 0.00 0.00 0.00 97 1013.9
20260505091550 -17 0.0 0.0 0.00 0.00 0.00 1011.3
20260505091118 8 44 1.6 3.2 0.00 0.00 0.00 96 1013.6
20260505090615 8 68 0.0 3.2 0.00 0.00 0.00 96 1013.6
20260505090113 8 40 3.2 3.2 0.00 0.00 0.00 96 1013.7
20260505090058 -17 0.0 0.0 0.00 0.00 0.00 1011.4
20260505085610 8 315 1.6 3.2 0.00 0.00 0.00 96 1013.5
20260505085109 8 54 3.2 3.2 0.00 0.00 0.00 96 1013.6
20260505084606 7 35 3.2 3.2 0.00 0.00 0.00 96 1013.9
20260505084555 -17 0.0 0.0 0.00 0.00 0.00 1011.3
20260505084104 7 302 0.0 1.6 0.00 0.00 0.00 96 1013.7
20260505083601 7 60 0.0 3.2 0.00 0.00 0.00 96 1014.0
20260505083103 -17 0.0 0.0 0.00 0.00 0.00 1011.4
20260505083057 7 31 0.0 3.2 0.00 0.00 0.00 96 1013.6
20260505082553 7 39 0.0 3.2 0.00 0.00 0.00 96 1013.7
20260505082050 7 68 1.6 3.2 0.00 0.00 0.00 96 1013.7
20260505081555 -17 0.0 0.0 0.00 0.00 0.00 1011.5
20260505081547 7 10 1.6 3.2 0.00 0.00 0.00 96 1013.9
20260505081044 7 66 3.2 3.2 0.00 0.00 0.00 96 1014.0
20260505080540 7 337 0.0 3.2 0.00 0.00 0.00 96 1014.2
20260505080051 -17 0.0 0.0 0.00 0.00 0.00 1011.5
20260505080037 7 37 0.0 3.2 0.00 0.00 0.00 96 1013.9
20260505075533 7 105 3.2 3.2 0.00 0.00 0.00 96 1013.7
20260505075030 7 53 1.6 1.6 0.00 0.00 0.00 96 1013.7
20260505074548 -17 0.0 0.0 0.00 0.00 0.00 1011.5
20260505074527 7 71 3.2 3.2 0.00 0.00 0.00 96 1013.9
20260505074024 8 45 3.2 3.2 0.00 0.00 0.00 96 1013.9
20260505073521 8 54 0.0 3.2 0.00 0.00 0.00 96 1014.1
20260505073051 -17 0.0 0.0 0.00 0.00 0.00 1012.0
20260505073020 8 100 3.2 3.2 0.00 0.00 0.00 96 1014.4
20260505072515 8 28 1.6 3.2 0.00 0.00 0.00 96 1014.4
20260505072011 7 66 0.0 3.2 0.00 0.00 0.00 96 1014.3
20260505071550 -17 0.0 0.0 0.00 0.00 0.00 1012.1
20260505071507 7 22 1.6 3.2 0.00 0.00 0.00 96 1014.4
20260505071005 8 45 1.6 3.2 0.00 0.00 0.00 96 1014.3
20260505070502 8 46 3.2 3.2 0.00 0.00 0.00 96 1014.6
20260505065957 8 92 1.6 3.2 0.00 0.00 0.00 96 1014.4
20260505065454 8 50 1.6 3.2 0.00 0.00 0.00 96 1014.3
20260505064951 8 81 4.8 4.8 0.00 0.00 0.00 96 1014.6
20260505064557 -17 0.0 0.0 0.00 0.00 0.00 1012.2
20260505064448 7 122 0.0 4.8 0.00 0.00 0.00 96 1014.4
20260505063946 8 55 0.0 3.2 0.00 0.00 0.00 96 1014.8
20260505063442 8 89 1.6 3.2 0.00 0.00 0.00 96 1014.7
20260505063052 -17 0.0 0.0 0.00 0.00 0.00 1012.3
20260505062939 7 68 0.0 3.2 0.00 0.00 0.00 96 1014.8
20260505062436 7 40 0.0 3.2 0.00 0.00 0.00 96 1014.9
20260505061933 8 44 1.6 3.2 0.00 0.00 0.00 96 1014.8
20260505061613 -17 0.0 0.0 0.00 0.00 0.00 1012.3
20260505061431 8 109 1.6 3.2 0.00 0.00 0.00 96 1014.6
20260505060928 7 79 0.0 3.2 0.00 0.00 0.00 96 1014.6
20260505060425 7 357 3.2 3.2 0.00 0.00 0.00 95 1014.9
20260505060059 -17 0.0 0.0 0.00 0.00 0.00 1012.4
20260505055921 7 358 1.6 1.6 0.00 0.00 0.00 95 1014.7
20260505055418 7 62 1.6 3.2 0.00 0.00 0.00 95 1015.0
20260505054914 7 335 1.6 3.2 0.00 0.00 0.00 95 1015.0
20260505054556 -17 0.0 0.0 0.00 0.00 0.00 1012.8
20260505054412 7 213 0.0 3.2 0.00 0.00 0.00 95 1014.9
20260505053910 7 77 0.0 3.2 0.00 0.00 0.00 95 1014.4
20260505053407 7 53 3.2 3.2 0.00 0.00 0.00 95 1014.7
20260505053052 -17 0.0 0.0 0.00 0.00 0.00 1012.3
20260505052903 7 33 3.2 3.2 0.00 0.00 0.00 95 1014.9
20260505052400 7 68 0.0 1.6 0.00 0.00 0.00 94 1014.8
20260505051858 7 50 0.0 3.2 0.00 0.00 0.00 94 1014.7
20260505051553 -17 0.0 0.0 0.00 0.00 0.00 1012.4
20260505051354 7 46 0.0 3.2 0.00 0.00 0.00 94 1014.7
20260505050853 8 194 1.6 3.2 0.00 0.00 0.00 94 1015.0
20260505050351 8 190 0.0 3.2 0.00 0.00 0.00 94 1015.0
20260505041556 -17 0.0 0.0 0.00 0.00 0.00 1013.0
20260505041318 8 229 0.0 1.6 0.00 0.00 0.00 93 1015.5
20260505040815 8 209 0.0 4.8 0.00 0.00 0.00 92 1015.5
20260505040313 8 60 4.8 4.8 0.00 0.00 0.00 92 1015.3
20260505040100 -17 0.0 0.0 0.00 0.00 0.00 1013.0
20260505035809 8 44 1.6 3.2 0.00 0.00 0.00 91 1015.4
20260505035305 8 55 3.2 4.8 0.00 0.00 0.00 91 1015.3
20260505034803 8 196 1.6 3.2 0.00 0.00 0.00 90 1015.0
20260505034547 -17 0.0 0.0 0.00 0.00 0.00 1012.9
20260505034259 8 72 4.8 6.4 0.00 0.00 0.00 89 1015.2
20260505033756 9 213 0.0 6.4 0.00 0.00 0.00 87 1015.0
20260505033253 9 82 4.8 4.8 0.00 0.00 0.00 85 1015.2
20260505033054 -17 0.0 0.0 0.00 0.00 0.00 1012.8
20260505032751 10 69 0.0 6.4 0.00 0.00 0.00 81 1015.2
20260505032247 11 189 1.6 6.4 0.00 0.00 0.00 76 1015.0
20260505031744 11 78 4.8 6.4 0.00 0.00 0.00 72 1014.7
20260505031553 -17 0.0 0.0 0.00 0.00 0.00 1012.3
20260505031241 11 65 3.2 4.8 0.00 0.00 0.00 68 1014.4
20260505030738 12 183 0.0 1.6 0.00 0.00 0.00 62 1014.4
20260505030234 12 44 0.0 0.0 0.00 0.00 0.00 59 1014.1
20260505030049 -17 0.0 0.0 0.00 0.00 0.00 1011.6
20260505025730 12 85 0.0 3.2 0.00 0.00 0.00 58 1013.6
20260505025228 11 69 0.0 1.6 0.00 0.00 0.00 60 1014.0
20260505024726 11 66 0.0 1.6 0.00 0.00 0.00 60 1014.0
20260505024552 -17 0.0 0.0 0.00 0.00 0.00 1011.4
20260505024223 11 66 0.0 3.2 0.00 0.00 0.00 61 1013.6
20260505023720 11 80 3.2 4.8 0.00 0.00 0.00 62 1013.6
20260505023217 11 91 1.6 1.6 0.00 0.00 0.00 62 1013.3
20260505023048 -17 0.0 0.0 0.00 0.00 0.00 1011.1
20260505022715 11 68 0.0 1.6 0.00 0.00 0.00 61 1013.5
20260505022211 11 89 0.0 1.6 0.00 0.00 0.00 61 1013.2
20260505021708 11 68 0.0 3.2 0.00 0.00 0.00 61 1013.4
20260505021550 -17 0.0 0.0 0.00 0.00 0.00 1011.0
20260505021205 11 93 1.6 1.6 0.00 0.00 0.00 61 1013.4
20260505020701 11 38 0.0 3.2 0.00 0.00 0.00 61 1013.2
20260505020157 12 246 0.0 0.0 0.00 0.00 0.00 60 1013.3
20260505020050 -17 0.0 0.0 0.00 0.00 0.00 1011.0
20260505015654 11 243 0.0 1.6 0.00 0.00 0.00 60 1013.4
20260505015151 11 129 0.0 3.2 0.00 0.00 0.00 62 1013.6
20260505014648 11 89 0.0 1.6 0.00 0.00 0.00 62 1013.3
20260505014551 -17 0.0 0.0 0.00 0.00 0.00 1011.1
20260505014145 12 59 0.0 3.2 0.00 0.00 0.00 61 1013.0
20260505013642 12 65 3.2 3.2 0.00 0.00 0.00 61 1012.8
20260505013139 12 70 3.2 3.2 0.00 0.00 0.00 61 1012.9
20260505013050 -17 0.0 0.0 0.00 0.00 0.00 1010.5
20260505012637 12 80 3.2 3.2 0.00 0.00 0.00 60 1013.2
20260505012134 12 25 0.0 1.6 0.00 0.00 0.00 60 1013.2
20260505011630 12 50 1.6 4.8 0.00 0.00 0.00 60 1012.9
20260505011551 -17 0.0 0.0 0.00 0.00 0.00 1010.6
20260505011128 12 46 3.2 6.4 0.00 0.00 0.00 59 1013.0
20260505010627 12 56 0.0 4.8 0.00 0.00 0.00 60 1013.0
20260505010125 12 54 3.2 8.0 0.00 0.00 0.00 61 1012.9
20260505010058 -17 0.0 0.0 0.00 0.00 0.00 1010.7
20260505005620 12 75 1.6 3.2 0.00 0.00 0.00 62 1013.2
20260505005118 13 111 4.8 4.8 0.00 0.00 0.00 60 1013.0
20260505004615 13 19 3.2 8.0 0.00 0.00 0.00 51 1013.2
20260505004548 -17 0.0 0.0 0.00 0.00 0.00 1010.9
20260505004112 14 59 3.2 6.4 0.00 0.00 0.00 47 1012.9
20260505003609 15 68 4.8 9.7 0.00 0.00 0.00 45 1013.2
20260505003106 15 272 4.8 4.8 0.00 0.00 0.00 42 1012.7
20260505003048 -17 0.0 0.0 0.00 0.00 0.00 1010.7
20260505002602 15 138 1.6 12.9 0.00 0.00 0.00 42 1012.7
20260505002101 15 231 4.8 6.4 0.00 0.00 0.00 41 1012.8
20260505001557 15 71 3.2 3.2 0.00 0.00 0.00 42 1012.6
20260505001552 -17 0.0 0.0 0.00 0.00 0.00 1010.3
20260505001055 15 48 3.2 4.8 0.00 0.00 0.00 42 1012.4
20260505000552 15 58 3.2 4.8 0.00 0.00 0.00 42 1012.6
20260505000100 -17 0.0 0.0 0.00 0.00 0.00 1009.8
20260505000049 15 97 0.0 4.8 0.00 0.00 0.00 41 1012.3
20260504235546 15 104 0.0 6.4 0.00 0.00 0.00 40 1012.2
20260504235043 15 67 3.2 11.3 0.00 0.00 0.00 39 1012.0
20260504234604 -17 0.0 0.0 0.00 0.00 0.00 1009.2
20260504234540 16 292 4.8 9.7 0.00 0.00 0.00 38 1011.6
20260504234037 16 253 3.2 6.4 0.00 0.00 0.00 37 1011.6
20260504233532 16 53 3.2 14.5 0.00 0.00 0.00 36 1011.6
20260504233048 -17 0.0 0.0 0.00 0.00 0.00 1009.2
20260504233029 16 188 1.6 9.7 0.00 0.00 0.00 36 1011.5
20260504232526 16 292 9.7 16.1 0.00 0.00 0.00 35 1011.5
20260504232024 16 89 4.8 16.1 0.00 0.00 0.00 35 1011.1
20260504231552 -17 0.0 0.0 0.00 0.00 0.00 1009.0
20260504231520 16 51 8.0 11.3 0.00 0.00 0.00 35 1011.5
20260504231016 16 81 4.8 8.0 0.00 0.00 0.00 35 1011.5
20260504230513 17 164 4.8 8.0 0.00 0.00 0.00 34 1011.1
20260504230048 -17 0.0 0.0 0.00 0.00 0.00 1008.5
20260504230012 17 53 4.8 9.7 0.00 0.00 0.00 33 1011.1
20260504225508 17 55 3.2 6.4 0.00 0.00 0.00 32 1011.0
20260504225005 17 27 3.2 6.4 0.00 0.00 0.00 32 1010.9
20260504224556 -17 0.0 0.0 0.00 0.00 0.00 1008.4
20260504224502 17 46 3.2 9.7 0.00 0.00 0.00 32 1010.9
20260504223959 17 346 3.2 14.5 0.00 0.00 0.00 31 1010.8
20260504223455 17 98 1.6 8.0 0.00 0.00 0.00 31 1011.1
20260504223054 -17 0.0 0.0 0.00 0.00 0.00 1008.2
20260504222951 17 15 1.6 8.0 0.00 0.00 0.00 31 1010.6
20260504222449 18 64 3.2 8.0 0.00 0.00 0.00 30 1010.7
20260504221946 18 84 8.0 11.3 0.00 0.00 0.00 30 1010.8
20260504221554 -17 0.0 0.0 0.00 0.00 0.00 1008.2
20260504221443 18 119 8.0 17.7 0.00 0.00 0.00 30 1010.8
20260504220940 18 99 4.8 9.7 0.00 0.00 0.00 29 1010.6
20260504220436 19 30 3.2 6.4 0.00 0.00 0.00 25 1010.9
20260504220101 -17 0.0 0.0 0.00 0.00 0.00 1008.1
20260504215934 19 48 1.6 6.4 0.00 0.00 0.00 25 1010.3
20260504215431 19 117 3.2 4.8 0.00 0.00 0.00 25 1010.2
20260504214927 19 327 3.2 6.4 0.00 0.00 0.00 24 1010.1
20260504214558 -17 0.0 0.0 0.00 0.00 0.00 1008.0
20260504214423 20 32 6.4 6.4 0.00 0.00 0.00 24 1010.3
20260504213920 20 109 3.2 8.0 0.00 0.00 0.00 24 1010.4
20260504213416 21 98 6.4 8.0 0.00 0.00 0.00 24 1010.4
20260504213110 -17 0.0 0.0 0.00 0.00 0.00 1008.0
20260504212914 20 43 6.4 6.4 0.00 0.00 0.00 24 1010.6
20260504212409 20 106 1.6 6.4 0.00 0.00 0.00 25 1010.4
20260504211908 21 67 8.0 8.0 0.00 0.00 0.00 24 1010.6
20260504211551 -17 0.0 0.0 0.00 0.00 0.00 1008.1
20260504211403 21 92 0.0 14.5 0.00 0.00 0.00 24 1010.6
20260504210901 21 106 4.8 6.4 0.00 0.00 0.00 24 1010.6
20260504210357 21 25 4.8 8.0 0.00 0.00 0.00 23 1010.4
20260504210052 -17 0.0 0.0 0.00 0.00 0.00 1008.2
20260504205854 22 60 6.4 12.9 0.00 0.00 0.00 23 1010.7
20260504205352 23 74 1.6 4.8 0.00 0.00 0.00 22 1010.7
20260504204850 22 43 3.2 4.8 0.00 0.00 0.00 21 1011.1
20260504204603 -17 0.0 0.0 0.00 0.00 0.00 1008.5
20260504204349 23 21 3.2 9.7 0.00 0.00 0.00 22 1011.0
20260504203848 23 95 0.0 8.0 0.00 0.00 0.00 21 1011.1
20260504203344 22 180 1.6 9.7 0.00 0.00 0.00 24 1011.3
20260504203051 -17 0.0 0.0 0.00 0.00 0.00 1008.6
20260504202840 22 23 4.8 6.4 0.00 0.00 0.00 22 1011.3
20260504202337 22 0 1.6 9.7 0.00 0.00 0.00 23 1011.4
20260504201833 23 81 6.4 9.7 0.00 0.00 0.00 22 1011.4
20260504201547 -17 0.0 0.0 0.00 0.00 0.00 1008.9
20260504201331 22 105 9.7 9.7 0.00 0.00 0.00 23 1011.4
20260504200828 23 297 4.8 8.0 0.00 0.00 0.00 23 1011.3
20260504200325 21 49 6.4 9.7 0.00 0.00 0.00 24 1011.5
20260504200054 -17 0.0 0.0 0.00 0.00 0.00 1009.1
20260504195821 22 27 1.6 6.4 0.00 0.00 0.00 24 1011.4